User: anonymous   Login
Location: Unspecified
(0.0000°N, 0.0000°E)
Time: 10:21:01
(UTC+00:00)
Language:

Radcal - Orbit

View from above orbital plane
View from above orbital plane
View from above satellite
View from above satellite

Ground track
Ground track

The orbit data is extracted from the following two-line orbital elements,

1 22698U 93041A   19081.84770407 +.00000045 +00000-0 +13460-4 0  9997
2 22698 089.5734 201.0166 0088742 187.5413 172.4452 14.23393731336114
Epoch (UTC): 22 March 2019 20:20:41
Eccentricity: 0.0088742
inclination: 89.5734°
perigee height: 750 km
apogee height: 878 km
right ascension of ascending node: 201.0166°
argument of perigee: 187.5413°
revolutions per day: 14.23393731
mean anomaly at epoch: 172.4452°
orbit number at epoch: 33611

The dashed part of the orbit path shows where the satellite is in the earth's shadow,  

DLR